TimeMST,TemperatureF,Dew PointF,Humidity,Sea Level PressureIn,VisibilityMPH,Wind Direction,Wind SpeedMPH,Gust SpeedMPH,PrecipitationIn,Events,Conditions,WindDirDegrees,DateUTC
12:53 AM,17.1,12.9,84,30.13,10.0,Calm,Calm,-,N/A,,Clear,0,2013-02-25 07:53:00
1:53 AM,16.0,10.9,81,30.13,10.0,Calm,Calm,-,N/A,,Clear,0,2013-02-25 08:53:00
2:53 AM,17.1,10.9,77,30.10,10.0,Calm,Calm,-,N/A,,Clear,0,2013-02-25 09:53:00
3:53 AM,17.1,10.9,77,30.10,10.0,Calm,Calm,-,N/A,,Clear,0,2013-02-25 10:53:00
4:53 AM,19.9,12.9,74,30.09,10.0,Calm,Calm,-,N/A,,Clear,0,2013-02-25 11:53:00
5:53 AM,17.1,12.0,81,30.10,10.0,Calm,Calm,-,N/A,,Clear,0,2013-02-25 12:53:00
6:53 AM,21.0,14.0,74,30.09,10.0,Calm,Calm,-,N/A,,Clear,0,2013-02-25 13:53:00
7:53 AM,25.0,19.0,78,30.09,10.0,WSW,3.5,-,N/A,,Clear,240,2013-02-25 14:53:00
8:53 AM,30.9,19.9,64,30.06,10.0,SW,15.0,-,N/A,,Clear,220,2013-02-25 15:53:00
9:53 AM,37.9,17.1,43,30.03,10.0,SW,16.1,21.9,N/A,,Clear,220,2013-02-25 16:53:00
10:53 AM,41.0,17.1,38,30.00,10.0,SSW,13.8,-,N/A,,Clear,210,2013-02-25 17:53:00
11:53 AM,44.1,14.0,30,29.96,10.0,SSW,15.0,23.0,N/A,,Clear,210,2013-02-25 18:53:00
12:53 PM,46.0,10.9,24,29.94,10.0,SSW,16.1,-,N/A,,Clear,210,2013-02-25 19:53:00
1:53 PM,46.9,9.0,21,29.92,10.0,SSW,15.0,23.0,N/A,,Clear,210,2013-02-25 20:53:00
2:53 PM,46.9,8.1,21,29.91,10.0,South,13.8,-,N/A,,Clear,190,2013-02-25 21:53:00
3:53 PM,46.9,5.0,18,29.89,10.0,SSW,12.7,-,N/A,,Clear,200,2013-02-25 22:53:00
4:53 PM,43.0,6.1,22,29.88,10.0,SSW,8.1,-,N/A,,Clear,200,2013-02-25 23:53:00
5:53 PM,35.1,8.1,33,29.91,10.0,SSE,8.1,-,N/A,,Clear,160,2013-02-26 00:53:00
7:53 PM,33.1,15.1,48,29.90,10.0,SSE,10.4,-,N/A,,Clear,160,2013-02-26 02:53:00
8:53 PM,30.9,19.0,61,29.89,10.0,SSE,10.4,-,N/A,,Clear,150,2013-02-26 03:53:00
9:53 PM,28.9,19.9,69,29.88,10.0,SE,8.1,-,N/A,,Clear,130,2013-02-26 04:53:00
10:53 PM,27.0,19.9,75,29.89,10.0,SSE,5.8,-,N/A,,Clear,150,2013-02-26 05:53:00
11:53 PM,26.1,19.0,75,29.88,10.0,SE,5.8,-,N/A,,Clear,140,2013-02-26 06:53:00